Flag for Germany Weather past 2 weeks in Lindau (Bodensee), Bavaria, Germany

52 °F

Partly cloudy.

Feels Like: 50 °F
Forecast: 38 / 50 °F
Wind: 6 mph from West

Location: Saint Gallen-Altenrhein

Current Time: Nov 30, 2015 at 2:03:49 AM

Latest Report: Nov 30, 2015 at 1:20 AM

Visibility: N/A

Pressure: 30.30 "Hg

Humidity: 54%

Dew point: 36 °F

Location of Lindau (Bodensee)Location

Historic Weather in Lindau (Bodensee) — Graph


Lindau (Bodensee) temperature yesterday

Maximum temperature yesterday: 52 °F (at 9:20 PM)
Minimum temperature yesterday: 36 °F (at 2:50 AM)
Average temperature yesterday: 44 °F

Past Weeks' High & Low Weather Summary

High64 °F (Nov 19, 11:20 PM)100% (Nov 15, 1:50 AM)30.30 "Hg (Nov 15, 1:50 AM)
Low25 °F (Nov 24, 4:50 AM)41% (Nov 19, 1:50 AM)29.42 "Hg (Nov 21, 1:50 PM)
Average43 °F79%30.02 "Hg
* Reported Nov 15 12:20 AM — Nov 30 12:50 AM, Lindau (Bodensee), Weather by CustomWeather, © 2015

Note: Actual official high and low records may vary slightly from our data, if they occured in-between our weather recording intervals... More about our weather records


Lindau (Bodensee) weather history for previous 24 hours

Time TempWeatherWind HumidityBarometerVisibility
12:50 AM
Mon, Nov 30
52 °FPartly cloudy.9 mph54%30.27 "HgN/A
11:50 PM
Sun, Nov 29
52 °FMostly cloudy.7 mph54%30.27 "HgN/A
11:20 PM52 °FOvercast.8 mph54%30.27 "HgN/A
10:50 PM50 °FOvercast.6 mph62%30.27 "HgN/A
10:20 PM50 °FPartly cloudy.8 mph58%30.27 "HgN/A
9:50 PM52 °FMostly cloudy.3 mph54%30.27 "HgN/A
9:20 PM52 °FMostly cloudy.6 mph54%30.27 "HgN/A
8:50 PM50 °FOvercast.5 mph58%30.27 "HgN/A
8:20 PM50 °FLight rain. Passing clouds.2 mph62%30.27 "HgN/A
7:50 PM50 °FPassing clouds.8 mph58%30.27 "HgN/A
7:20 PM50 °FPassing clouds.6 mph58%30.27 "HgN/A
6:50 PM50 °FPassing clouds.12 mph58%30.24 "HgN/A
6:20 PM50 °FPassing clouds.12 mph62%30.24 "HgN/A
5:50 PM50 °FPassing clouds.13 mph62%30.24 "HgN/A
5:20 PM48 °FPassing clouds.8 mph66%30.24 "HgN/A
4:50 PM50 °FPassing clouds.14 mph62%30.24 "HgN/A
4:20 PM48 °FPartly sunny.12 mph66%30.21 "HgN/A
3:50 PM48 °FPartly sunny.14 mph66%30.21 "HgN/A
3:20 PM48 °FPartly sunny.15 mph66%30.21 "HgN/A
2:50 PM48 °FPartly sunny.10 mph62%30.18 "HgN/A
2:20 PM48 °FSprinkles. Partly sunny.14 mph62%30.21 "HgN/A
1:50 PM48 °FSprinkles. Partly sunny.5 mph66%30.21 "HgN/A
1:20 PM45 °FPartly sunny.5 mph76%30.18 "HgN/A
12:50 PM43 °FPartly sunny.6 mph71%30.18 "HgN/A
12:20 PM43 °FBroken clouds.5 mph71%30.21 "HgN/A
11:50 AM43 °FBroken clouds.2 mph76%30.21 "HgN/A
11:20 AM41 °FPartly sunny.5 mph70%30.21 "HgN/A
10:20 AM39 °FLight rain. Partly sunny.3 mph81%30.21 "HgN/A
9:50 AM39 °FPartly sunny.2 mph70%30.21 "HgN/A
9:20 AM39 °FOvercast.2 mph75%30.21 "HgN/A
8:50 AM41 °FOvercast.2 mph57%30.21 "HgN/A
8:20 AM39 °FOvercast.2 mph61%30.21 "HgN/A
7:50 AM41 °FOvercast.5 mph57%30.18 "HgN/A
7:20 AM41 °FOvercast.3 mph53%30.18 "HgN/A
6:50 AM41 °FPassing clouds.8 mph57%30.21 "HgN/A
6:20 AM39 °FOvercast.6 mph61%30.21 "HgN/A
5:20 AM37 °FClear.5 mph70%30.21 "HgN/A
4:50 AM39 °FOvercast.3 mph65%30.21 "HgN/A
4:20 AM37 °FPassing clouds.5 mph75%30.18 "HgN/A
3:50 AM37 °FPassing clouds.6 mph75%30.18 "HgN/A
3:20 AM37 °FPassing clouds.6 mph70%30.21 "HgN/A
2:50 AM36 °FPassing clouds.3 mph75%30.21 "HgN/A
2:20 AM37 °FClear.5 mph65%30.21 "HgN/A
Weather by CustomWeather, © 2015

See weather overviewHow to use our weather pages